Marshfield, WI

5:31 PM CDT on October 13, 2019 (GMT -0500)
Marshfield Municipal

Weather History for KMFI - September, 2019

Change the Weather History Date:

Wednesday, September 18, 2019

  Actual Average Record
Temperature  
Mean Temperature 70 °F -  
Max Temperature 79 °F 70 °F 91 °F (1955)
Min Temperature 63 °F 47 °F 28 °F (1929)
Cooling Degree Days 6    
Growing Degree Days 20 (Base 50)    
Moisture  
Dew Point 64 °F    
Average Humidity 86    
Maximum Humidity 97    
Minimum Humidity 71    
Precipitation  
Precipitation 0.00 in - - ()
Sea Level Pressure  
Sea Level Pressure 30.02 in    
Wind  
Wind Speed 11 mph (South)    
Max Wind Speed 17 mph    
Max Gust Speed 32 mph    
Visibility 6 miles    
Events      
Averages and records for this station are not official NWS values.
T = Trace of Precipitation, MM = Missing Value Source: NWS Daily Summary

Daily Weather History Graph

Daily Weather History Graph

Search for Another Location

Airport or City:

Astronomy

Sep. 18, 2019 Rise Set
Actual Time 6:42 AM CDT 7:06 PM CDT
Civil Twilight 6:13 AM CDT 7:35 PM CDT
Nautical Twilight 5:39 AM CDT 8:09 PM CDT
Astronomical Twilight 5:03 AM CDT 8:45 PM CDT
Moon 9:30 PM CDT (9/18) 10:55 AM CDT (9/18)
Length of Visible Light 13h 21m
Length of Day
12h 23m
Waning Gibbous, 82% of the Moon is Illuminated
Sep 18
Waning Gibbous
Sep 21
Last Quarter
Sep 28
New
Oct 5
First Quarter
Oct 13
Full

Hourly Weather History & Observations

Time (CDT) Temp. Dew Point Humidity Pressure Visibility Wind Dir Wind Speed Gust Speed Precip Events Conditions
12:54 AM 64.0 °F 62.1 °F 93% 30.04 in 6.0 mi SSE 8.1 mph - N/A   Clear
1:54 AM 64.0 °F 62.1 °F 93% 30.04 in 5.0 mi South 9.2 mph - N/A   Clear
2:13 AM 64.0 °F 62.1 °F 93% 30.06 in 4.0 mi South 10.4 mph - N/A   Scattered Clouds
2:27 AM 64.0 °F 62.1 °F 93% 30.05 in 4.0 mi South 10.4 mph - N/A   Mostly Cloudy
2:54 AM 64.9 °F 63.0 °F 93% 30.02 in 4.0 mi South 15.0 mph 20.7 mph N/A   Overcast
3:54 AM 64.9 °F 63.0 °F 93% 30.02 in 3.0 mi South 15.0 mph - N/A   Overcast
4:31 AM 64.9 °F 63.0 °F 93% 30.03 in 4.0 mi South 12.7 mph - N/A   Overcast
4:54 AM 64.0 °F 62.1 °F 93% 30.01 in 4.0 mi South 15.0 mph - N/A   Mostly Cloudy
5:35 AM 64.0 °F 62.1 °F 93% 30.02 in 4.0 mi South 11.5 mph - N/A   Scattered Clouds
5:54 AM 63.0 °F 61.0 °F 93% 30.01 in 4.0 mi SSE 11.5 mph - N/A   Partly Cloudy
6:17 AM 63.0 °F 61.0 °F 93% 30.03 in 3.0 mi SSE 11.5 mph - N/A   Mostly Cloudy
6:54 AM 63.0 °F 62.1 °F 97% 30.04 in 2.0 mi South 11.5 mph - N/A   Overcast
7:54 AM 64.0 °F 62.1 °F 93% 30.06 in 2.0 mi SSE 8.1 mph - N/A   Overcast
8:33 AM 64.0 °F 62.1 °F 93% 30.08 in 2.5 mi SSE 10.4 mph - N/A   Overcast
8:44 AM 64.9 °F 62.1 °F 90% 30.08 in 3.0 mi SSE 8.1 mph - N/A   Mostly Cloudy
8:54 AM 66.0 °F 62.1 °F 87% 30.07 in 3.0 mi South 11.5 mph - N/A   Mostly Cloudy
9:10 AM 66.0 °F 62.1 °F 87% 30.08 in 4.0 mi South 10.4 mph - N/A   Scattered Clouds
9:54 AM 69.1 °F 63.0 °F 81% 30.07 in 7.0 mi South 9.2 mph - N/A   Partly Cloudy
10:54 AM 73.0 °F 64.0 °F 73% 30.06 in 9.0 mi South 17.3 mph - N/A   Clear
11:19 AM 73.0 °F 64.9 °F 76% 30.08 in 9.0 mi SW 6.9 mph - N/A   Mostly Cloudy
11:52 AM 73.4 °F 64.4 °F 73% 30.08 in - North - - N/A   Unknown
11:54 AM 73.0 °F 64.9 °F 76% 30.07 in - North - - N/A   Unknown
12:54 PM 75.9 °F 66.0 °F 71% 30.01 in 9.0 mi South 16.1 mph - N/A   Partly Cloudy
1:54 PM 73.9 °F 66.0 °F 76% 29.93 in 9.0 mi SSE 16.1 mph 32.2 mph N/A   Clear
2:54 PM 75.9 °F 68.0 °F 76% 29.97 in 9.0 mi SSW 12.7 mph 20.7 mph N/A   Partly Cloudy
3:54 PM 78.1 °F 69.1 °F 74% 29.96 in 10.0 mi South 15.0 mph - N/A   Clear
4:54 PM 78.1 °F 69.1 °F 74% 29.95 in 9.0 mi South 11.5 mph - N/A   Clear
5:54 PM 77.0 °F 68.0 °F 74% 29.95 in 8.0 mi South 10.4 mph - N/A   Partly Cloudy
6:54 PM 73.9 °F 69.1 °F 85% 29.97 in 7.0 mi South 6.9 mph - N/A   Clear
7:54 PM 73.0 °F 68.0 °F 84% 29.97 in 8.0 mi South 9.2 mph - N/A   Clear
8:54 PM 71.1 °F 68.0 °F 90% 29.98 in 8.0 mi South 8.1 mph - N/A   Partly Cloudy
9:54 PM 72.0 °F 68.0 °F 87% 29.98 in 8.0 mi South 11.5 mph - N/A   Scattered Clouds
10:54 PM 71.1 °F 68.0 °F 90% 29.98 in 8.0 mi South 11.5 mph - N/A   Overcast
11:54 PM 71.1 °F 68.0 °F 90% 29.98 in 8.0 mi South 10.4 mph - N/A   Overcast